Date String (YYYY-MM-DD hh:mm:ss) UTC,Instrument flags,Ambient pressure (hPa),Sample flow (lpm),Bypass flow (lpm),Sample temperature (°C),Ambient temperature (°C),ASC tube jacket temperature (°C),LED temperature (°C),Box temperature (°C),Sample RH (%),Span deviation,Mass concentration (μg/m³),Mass concentration (μg/m³),Mass concentration (μg/m³)
DateTimeUTC,F1_M11,P_M11,Q1_M11,Q2_M11,T1_M11,T2_M11,T3_M11,T4_M11,T5_M11,U1_M11,ZSPAN_M11,X0_M11,X2_M11,X1_M11
2022-05-02 17:00:00,,0825.1,4.99,0.00,24.2,23.4,00.0,33.2,26.1,19.9,0000.0,0000.35,0000.20,0000.14
2022-05-02 17:01:00,,0825.1,4.99,0.00,24.2,23.3,00.0,33.2,26.1,19.8,0000.0,0000.38,0000.22,0000.16
2022-05-02 17:02:00,,0825.1,5.01,0.00,24.2,23.4,00.0,33.2,26.0,19.8,0000.0,0000.42,0000.24,0000.18
2022-05-02 17:03:00,,0825.1,5.00,0.00,24.3,23.4,00.0,33.2,26.1,20.0,0000.0,0000.46,0000.26,0000.19
2022-05-02 17:04:00,,0825.1,4.99,0.00,24.2,23.4,00.0,33.2,26.1,19.9,0000.0,0000.45,0000.26,0000.20
2022-05-02 17:05:00,,0825.1,5.00,0.00,24.2,23.3,00.0,33.2,26.1,19.8,0000.0,0000.46,0000.28,0000.21
2022-05-02 17:06:00,,0825.0,5.01,0.00,24.2,23.4,00.0,33.2,26.1,19.9,0000.0,0000.47,0000.29,0000.21
2022-05-02 17:07:00,,0825.0,5.00,0.00,24.2,23.4,00.0,33.2,26.1,20.1,0000.0,0000.54,0000.32,0000.24
2022-05-02 17:08:00,,0825.1,5.00,0.00,24.2,23.4,00.0,33.2,26.1,20.1,0000.0,0000.55,0000.34,0000.26
2022-05-02 17:09:00,,0825.1,5.01,0.00,24.2,23.3,00.0,33.2,26.1,20.1,0000.0,0000.55,0000.35,0000.28
2022-05-02 17:10:00,,0825.0,5.00,0.00,24.2,23.3,00.0,33.2,26.0,20.2,0000.0,0000.59,0000.39,0000.31
2022-05-02 17:11:00,,0825.1,4.99,0.00,24.2,23.3,00.0,33.2,26.1,20.0,0000.0,0000.59,0000.39,0000.31
2022-05-02 17:12:00,,0825.1,4.99,0.00,24.2,23.3,00.0,33.2,26.1,20.0,0000.0,0000.58,0000.38,0000.31
2022-05-02 17:13:00,,0825.1,5.00,0.00,24.2,23.3,00.0,33.2,26.1,20.2,0000.0,0000.53,0000.36,0000.29
2022-05-02 17:14:00,,0825.0,5.01,0.00,24.2,23.4,00.0,33.2,26.1,20.5,0000.0,0000.50,0000.35,0000.29
2022-05-02 17:15:00,,0825.0,5.00,0.00,24.2,23.4,00.0,33.2,26.1,20.4,0000.0,0000.50,0000.35,0000.29
2022-05-02 17:16:00,,0825.0,4.99,0.00,24.2,23.3,00.0,33.2,26.1,20.2,0000.0,0000.48,0000.34,0000.30
2022-05-02 17:17:00,,0825.1,5.02,0.00,24.3,23.4,00.0,33.2,26.1,20.5,0000.0,0000.48,0000.34,0000.30
2022-05-02 17:18:00,,0825.0,4.99,0.00,24.3,23.4,00.0,33.2,26.1,20.7,0000.0,0000.43,0000.32,0000.29
2022-05-02 17:19:00,,0825.0,5.01,0.00,24.3,23.4,00.0,33.2,26.1,20.6,0000.0,0000.42,0000.32,0000.29
2022-05-02 17:20:00,,0825.1,5.00,0.00,24.2,23.3,00.0,33.2,26.1,20.4,0000.0,0001.29,0000.34,0000.31
2022-05-02 17:21:00,,0825.0,4.99,0.00,24.2,23.3,00.0,33.2,26.1,20.4,0000.0,0001.78,0000.36,0000.32
2022-05-02 17:22:00,,0825.1,4.99,0.00,24.2,23.3,00.0,33.2,26.0,20.3,0000.0,0001.85,0000.41,0000.36
2022-05-02 17:23:00,,0825.1,5.00,0.00,24.2,23.3,00.0,33.2,26.0,20.4,0000.0,0001.94,0000.49,0000.44
2022-05-02 17:24:00,,0825.1,5.01,0.00,24.2,23.3,00.0,33.2,26.0,20.4,0000.0,0002.07,0000.61,0000.55
2022-05-02 17:25:00,,0825.1,4.99,0.00,24.2,23.3,00.0,33.2,26.0,20.4,0000.0,0002.23,0000.73,0000.67
2022-05-02 17:26:00,,0825.1,5.00,0.00,24.2,23.3,00.0,33.2,26.0,20.3,0000.0,0002.32,0000.81,0000.74
2022-05-02 17:27:00,,0825.1,5.01,0.00,24.2,23.3,00.0,33.2,26.0,20.1,0000.0,0002.38,0000.85,0000.78
2022-05-02 17:28:00,,0825.2,4.99,0.00,24.2,23.3,00.0,33.2,26.0,20.1,0000.0,0002.41,0000.88,0000.81
2022-05-02 17:29:00,,0825.2,5.00,0.00,24.2,23.3,00.0,33.2,26.0,20.1,0000.0,0002.41,0000.89,0000.83
2022-05-02 17:30:00,,0825.2,5.02,0.00,24.2,23.3,00.0,33.2,26.0,20.1,0000.0,0002.41,0000.89,0000.84
2022-05-02 17:31:00,,0825.2,4.99,0.00,24.2,23.3,00.0,33.2,26.0,19.9,0000.0,0001.57,0000.89,0000.83
2022-05-02 17:32:00,,0825.2,5.00,0.00,24.2,23.2,00.0,33.2,26.0,20.1,0000.0,0001.06,0000.88,0000.83
2022-05-02 17:33:00,,0825.2,5.00,0.00,24.2,23.2,00.0,33.2,26.0,20.4,0000.0,0001.06,0000.87,0000.80
2022-05-02 17:34:00,,0825.2,5.00,0.00,24.1,23.2,00.0,33.2,25.9,20.4,0000.0,0000.99,0000.80,0000.74
2022-05-02 17:35:00,,0825.2,5.01,0.00,24.1,23.2,00.0,33.1,26.0,20.6,0000.0,0000.92,0000.73,0000.66
2022-05-02 17:36:00,,0825.2,5.00,0.00,24.1,23.2,00.0,33.1,26.0,20.6,0000.0,0000.81,0000.64,0000.58
2022-05-02 17:37:00,,0825.3,4.99,0.00,24.1,23.2,00.0,33.1,26.0,20.7,0000.0,0000.90,0000.61,0000.53
2022-05-02 17:38:00,,0825.3,5.01,0.00,24.1,23.2,00.0,33.1,26.0,20.5,0000.0,0000.95,0000.62,0000.52
2022-05-02 17:39:00,,0825.2,5.00,0.00,24.1,23.3,00.0,33.1,26.0,20.5,0000.0,0000.97,0000.62,0000.51
2022-05-02 17:40:00,,0825.3,5.00,0.00,24.1,23.3,00.0,33.1,26.0,20.3,0000.0,0000.99,0000.63,0000.52
2022-05-02 17:41:00,,0825.3,5.00,0.00,24.2,23.3,00.0,33.1,26.0,20.5,0000.0,0001.08,0000.67,0000.53
2022-05-02 17:42:00,,0825.2,5.01,0.00,24.2,23.3,00.0,33.1,26.0,20.5,0000.0,0001.14,0000.69,0000.54
2022-05-02 17:43:00,,0825.3,5.00,0.00,24.2,23.3,00.0,33.1,26.0,20.5,0000.0,0001.23,0000.72,0000.55
2022-05-02 17:44:00,,0825.2,5.00,0.00,24.2,23.3,00.0,33.1,26.0,20.6,0000.0,0001.28,0000.74,0000.56
2022-05-02 17:45:00,,0825.2,5.00,0.00,24.2,23.3,00.0,33.1,26.0,20.6,0000.0,0001.34,0000.76,0000.56
2022-05-02 17:46:00,,0825.3,5.00,0.00,24.2,23.3,00.0,33.1,26.0,20.4,0000.0,0001.39,0000.78,0000.58
2022-05-02 17:47:00,,0825.3,5.01,0.00,24.2,23.3,00.0,33.1,26.0,20.2,0000.0,0001.43,0000.80,0000.59
2022-05-02 17:48:00,,0825.3,5.00,0.00,24.2,23.3,00.0,33.1,26.0,20.1,0000.0,0001.30,0000.78,0000.59
2022-05-02 17:49:00,,0825.3,5.00,0.00,24.2,23.3,00.0,33.1,26.0,20.0,0000.0,0001.24,0000.78,0000.60
2022-05-02 17:50:00,,0825.3,5.01,0.00,24.2,23.3,00.0,33.1,26.0,20.4,0000.0,0001.21,0000.76,0000.60
2022-05-02 17:51:00,,0825.3,5.00,0.00,24.2,23.3,00.0,33.1,26.0,20.4,0000.0,0001.20,0000.75,0000.59
2022-05-02 17:52:00,,0825.3,4.99,0.00,24.2,23.3,00.0,33.1,26.0,20.4,0000.0,0001.21,0000.76,0000.60
2022-05-02 17:53:00,,0825.3,5.02,0.00,24.2,23.4,00.0,33.1,26.1,20.5,0000.0,0001.19,0000.76,0000.61
2022-05-02 17:54:00,,0825.3,5.00,0.00,24.2,23.4,00.0,33.1,26.1,20.5,0000.0,0001.18,0000.77,0000.63
2022-05-02 17:55:00,,0825.3,4.99,0.00,24.2,23.3,00.0,33.1,26.0,20.3,0000.0,0001.14,0000.77,0000.65
2022-05-02 17:56:00,,0825.3,5.00,0.00,24.2,23.3,00.0,33.1,26.1,20.2,0000.0,0001.10,0000.78,0000.68
2022-05-02 17:57:00,,0825.3,5.01,0.00,24.2,23.3,00.0,33.2,26.1,19.8,0000.0,0001.10,0000.80,0000.71
2022-05-02 17:58:00,,0825.3,5.01,0.00,24.2,23.4,00.0,33.2,26.1,20.0,0000.0,0001.14,0000.83,0000.74
2022-05-02 17:59:00,,0825.3,5.00,0.00,24.2,23.4,00.0,33.2,26.1,20.1,0000.0,0001.17,0000.86,0000.77
